Time,TemperatureF,DewpointF,PressureIn,WindDirection,WindDirectionDegrees,WindSpeedMPH,WindSpeedGustMPH,Humidity,HourlyPrecipIn,Conditions,Clouds,dailyrainin,SoftwareType,DateUTC
2013-02-03 00:00:00,24.1,20.3,29.97,SW,225,0.0,0.4,85,0.00,,,0.00,WUHU216HW,2013-02-03 05:00:00,
2013-02-03 00:01:00,24.1,20.3,29.97,SW,225,0.0,0.4,85,0.00,,,0.00,WUHU216HW,2013-02-03 05:01:00,
2013-02-03 00:03:00,24.1,20.3,29.97,SW,225,0.2,0.4,85,0.00,,,0.00,WUHU216HW,2013-02-03 05:03:00,
2013-02-03 00:08:00,24.1,20.3,29.97,SW,225,0.0,0.2,85,0.00,,,0.00,WUHU216HW,2013-02-03 05:08:00,
2013-02-03 00:13:00,24.1,20.3,29.97,SW,225,0.2,0.4,85,0.00,,,0.00,WUHU216HW,2013-02-03 05:13:00,
2013-02-03 00:18:00,24.1,20.3,29.97,SW,225,0.0,0.4,85,0.00,,,0.00,WUHU216HW,2013-02-03 05:18:00,
2013-02-03 00:23:00,24.1,20.3,29.97,SW,225,0.0,0.2,85,0.00,,,0.00,WUHU216HW,2013-02-03 05:23:00,
2013-02-03 00:28:00,24.1,20.3,29.97,SW,225,0.0,0.4,85,0.00,,,0.00,WUHU216HW,2013-02-03 05:28:00,
2013-02-03 00:33:00,24.1,20.3,29.96,SW,225,0.0,0.4,85,0.00,,,0.00,WUHU216HW,2013-02-03 05:33:00,
2013-02-03 00:38:00,24.1,20.3,29.96,SW,225,0.9,0.9,85,0.00,,,0.00,WUHU216HW,2013-02-03 05:38:00,
2013-02-03 00:43:00,24.1,20.3,29.96,SW,225,0.0,0.9,85,0.00,,,0.00,WUHU216HW,2013-02-03 05:43:00,
2013-02-03 00:48:00,24.1,20.3,29.96,SW,225,0.0,0.2,85,0.00,,,0.00,WUHU216HW,2013-02-03 05:48:00,
2013-02-03 00:53:00,24.3,20.4,29.96,SW,225,0.2,0.2,85,0.00,,,0.00,WUHU216HW,2013-02-03 05:53:00,
2013-02-03 00:58:00,24.3,20.4,29.96,SW,225,0.0,0.2,85,0.00,,,0.00,WUHU216HW,2013-02-03 05:58:00,
2013-02-03 01:03:00,24.3,20.4,29.96,SW,225,0.0,0.4,85,0.00,,,0.00,WUHU216HW,2013-02-03 06:03:00,
2013-02-03 01:08:00,24.3,20.4,29.96,SW,225,0.0,0.4,85,0.00,,,0.00,WUHU216HW,2013-02-03 06:08:00,
2013-02-03 01:13:00,24.3,20.4,29.95,SW,225,0.2,0.2,85,0.00,,,0.00,WUHU216HW,2013-02-03 06:13:00,
2013-02-03 01:18:00,24.3,20.4,29.96,SW,225,0.0,0.2,85,0.00,,,0.00,WUHU216HW,2013-02-03 06:18:00,
2013-02-03 01:23:00,24.3,20.4,29.96,SW,225,0.0,0.7,85,0.00,,,0.00,WUHU216HW,2013-02-03 06:23:00,
2013-02-03 01:28:00,24.3,20.4,29.95,SW,225,0.0,0.7,85,0.00,,,0.00,WUHU216HW,2013-02-03 06:28:00,
2013-02-03 01:33:00,24.3,20.4,29.95,SW,225,0.0,0.4,85,0.00,,,0.00,WUHU216HW,2013-02-03 06:33:00,
2013-02-03 01:38:00,24.3,20.4,29.95,SW,225,0.0,0.0,85,0.00,,,0.00,WUHU216HW,2013-02-03 06:38:00,
2013-02-03 01:43:00,24.3,20.4,29.95,SW,225,0.0,0.4,85,0.00,,,0.00,WUHU216HW,2013-02-03 06:43:00,
2013-02-03 01:48:00,24.3,20.4,29.94,SW,225,0.0,0.4,85,0.00,,,0.00,WUHU216HW,2013-02-03 06:48:00,
2013-02-03 01:53:00,24.5,20.6,29.94,SW,225,0.0,0.2,85,0.00,,,0.00,WUHU216HW,2013-02-03 06:53:00,
2013-02-03 01:58:00,24.5,20.6,29.94,SW,225,0.2,0.2,85,0.00,,,0.00,WUHU216HW,2013-02-03 06:58:00,
2013-02-03 02:03:00,24.5,20.6,29.94,SW,225,0.0,0.2,85,0.00,,,0.00,WUHU216HW,2013-02-03 07:03:00,
2013-02-03 02:08:00,24.5,20.6,29.94,SW,225,0.0,0.2,85,0.00,,,0.00,WUHU216HW,2013-02-03 07:08:00,
2013-02-03 02:13:00,24.5,20.6,29.94,SW,225,0.0,0.2,85,0.00,,,0.00,WUHU216HW,2013-02-03 07:13:00,
2013-02-03 02:18:00,24.5,20.6,29.94,SW,225,0.0,0.2,85,0.00,,,0.00,WUHU216HW,2013-02-03 07:18:00,
2013-02-03 02:23:00,24.5,20.6,29.94,SW,225,0.0,0.2,85,0.00,,,0.00,WUHU216HW,2013-02-03 07:23:00,
2013-02-03 02:28:00,24.5,20.6,29.94,SW,225,0.0,0.0,85,0.00,,,0.00,WUHU216HW,2013-02-03 07:28:00,
2013-02-03 02:33:00,24.5,20.6,29.93,SW,225,0.0,0.0,85,0.00,,,0.00,WUHU216HW,2013-02-03 07:33:00,
2013-02-03 02:38:00,24.5,20.6,29.93,SW,225,0.0,0.0,85,0.00,,,0.00,WUHU216HW,2013-02-03 07:38:00,
2013-02-03 02:43:00,24.5,20.6,29.93,SW,225,0.0,0.0,85,0.00,,,0.00,WUHU216HW,2013-02-03 07:43:00,
2013-02-03 02:48:00,24.5,20.6,29.93,SW,225,0.2,0.2,85,0.00,,,0.00,WUHU216HW,2013-02-03 07:48:00,
2013-02-03 02:53:00,24.5,20.6,29.93,SW,225,0.0,0.2,85,0.00,,,0.00,WUHU216HW,2013-02-03 07:53:00,
2013-02-03 02:58:00,24.5,20.6,29.93,SW,225,0.0,0.2,85,0.00,,,0.00,WUHU216HW,2013-02-03 07:58:00,
2013-02-03 03:03:00,24.5,20.6,29.93,SW,225,0.0,0.4,85,0.00,,,0.00,WUHU216HW,2013-02-03 08:03:00,
2013-02-03 03:08:00,24.5,20.6,29.93,SW,225,0.2,0.4,85,0.00,,,0.00,WUHU216HW,2013-02-03 08:08:00,
2013-02-03 03:13:00,24.5,20.6,29.92,SW,225,0.0,0.2,85,0.00,,,0.00,WUHU216HW,2013-02-03 08:13:00,
2013-02-03 03:18:00,24.5,20.6,29.92,SW,225,0.0,0.4,85,0.00,,,0.00,WUHU216HW,2013-02-03 08:18:00,
2013-02-03 03:23:00,24.5,20.6,29.92,SW,225,0.0,0.4,85,0.00,,,0.00,WUHU216HW,2013-02-03 08:23:00,
2013-02-03 03:28:00,24.5,20.6,29.92,SW,225,0.0,0.0,85,0.00,,,0.00,WUHU216HW,2013-02-03 08:28:00,
2013-02-03 03:33:00,24.5,20.6,29.92,SW,225,0.0,0.0,85,0.00,,,0.00,WUHU216HW,2013-02-03 08:33:00,
2013-02-03 03:38:00,24.5,20.6,29.91,SW,225,0.0,0.0,85,0.00,,,0.00,WUHU216HW,2013-02-03 08:38:00,
2013-02-03 03:43:00,24.5,20.6,29.91,SW,225,0.0,0.0,85,0.00,,,0.00,WUHU216HW,2013-02-03 08:43:00,
2013-02-03 03:48:00,24.5,20.6,29.91,SW,225,0.0,0.0,85,0.00,,,0.00,WUHU216HW,2013-02-03 08:48:00,
2013-02-03 03:53:00,24.5,20.6,29.91,SW,225,0.0,0.0,85,0.00,,,0.00,WUHU216HW,2013-02-03 08:53:00,
2013-02-03 03:58:00,24.5,20.6,29.91,SW,225,0.0,0.0,85,0.00,,,0.00,WUHU216HW,2013-02-03 08:58:00,
2013-02-03 04:03:00,24.5,20.6,29.91,SW,225,0.0,0.0,85,0.00,,,0.00,WUHU216HW,2013-02-03 09:03:00,
2013-02-03 04:08:00,24.5,20.6,29.91,SW,225,0.0,0.0,85,0.00,,,0.00,WUHU216HW,2013-02-03 09:08:00,
2013-02-03 04:13:00,24.5,20.6,29.90,SW,225,0.0,0.0,85,0.00,,,0.00,WUHU216HW,2013-02-03 09:13:00,
2013-02-03 04:18:00,24.5,20.6,29.90,SW,225,0.0,0.2,85,0.00,,,0.00,WUHU216HW,2013-02-03 09:18:00,
2013-02-03 04:23:00,24.5,20.6,29.90,SW,225,0.0,0.2,85,0.00,,,0.00,WUHU216HW,2013-02-03 09:23:00,
2013-02-03 04:28:00,24.5,20.6,29.90,SW,225,0.0,0.2,85,0.00,,,0.00,WUHU216HW,2013-02-03 09:28:00,
2013-02-03 04:33:00,24.5,20.6,29.90,SW,225,0.0,0.0,85,0.00,,,0.00,WUHU216HW,2013-02-03 09:33:00,
2013-02-03 04:38:00,24.5,20.6,29.89,SW,225,0.2,0.4,85,0.00,,,0.00,WUHU216HW,2013-02-03 09:38:00,
2013-02-03 04:43:00,24.5,20.6,29.89,SW,225,0.7,0.7,85,0.00,,,0.00,WUHU216HW,2013-02-03 09:43:00,
2013-02-03 04:48:00,24.5,20.6,29.89,SW,225,0.0,0.7,85,0.00,,,0.00,WUHU216HW,2013-02-03 09:48:00,
2013-02-03 04:53:00,24.5,20.6,29.89,SW,225,0.0,0.2,85,0.00,,,0.00,WUHU216HW,2013-02-03 09:53:00,
2013-02-03 04:58:00,24.5,20.6,29.89,SW,225,0.0,0.0,85,0.00,,,0.00,WUHU216HW,2013-02-03 09:58:00,
2013-02-03 05:02:00,24.3,20.4,29.89,SW,225,0.2,0.2,85,0.00,,,0.00,WUHU216HW,2013-02-03 10:02:00,
2013-02-03 05:07:00,24.3,20.4,29.89,SW,225,0.0,0.2,85,0.00,,,0.00,WUHU216HW,2013-02-03 10:07:00,
2013-02-03 05:12:00,24.3,20.4,29.89,SW,225,0.0,0.2,85,0.00,,,0.00,WUHU216HW,2013-02-03 10:12:00,
2013-02-03 05:17:00,24.3,20.4,29.88,SW,225,0.2,0.4,85,0.00,,,0.00,WUHU216HW,2013-02-03 10:17:00,
2013-02-03 05:22:00,24.3,20.4,29.89,SW,225,0.4,0.4,85,0.00,,,0.00,WUHU216HW,2013-02-03 10:22:00,
2013-02-03 05:27:00,24.1,20.3,29.89,SW,225,0.0,0.4,85,0.00,,,0.00,WUHU216HW,2013-02-03 10:27:00,
2013-02-03 05:32:00,24.3,20.4,29.89,SW,225,0.0,0.2,85,0.00,,,0.00,WUHU216HW,2013-02-03 10:32:00,
2013-02-03 05:37:00,24.3,20.4,29.89,SW,225,0.0,0.2,85,0.00,,,0.00,WUHU216HW,2013-02-03 10:37:00,
2013-02-03 05:43:00,24.3,20.4,29.89,SW,225,0.2,0.2,85,0.00,,,0.00,WUHU216HW,2013-02-03 10:43:00,
2013-02-03 05:48:00,24.1,20.3,29.89,SW,225,0.0,0.4,85,0.00,,,0.00,WUHU216HW,2013-02-03 10:48:00,
2013-02-03 05:53:00,24.3,20.4,29.89,SW,225,0.4,0.4,85,0.00,,,0.00,WUHU216HW,2013-02-03 10:53:00,
2013-02-03 05:58:00,24.3,20.4,29.88,SW,225,0.0,0.4,85,0.00,,,0.00,WUHU216HW,2013-02-03 10:58:00,
2013-02-03 06:03:00,24.3,20.4,29.88,SW,225,0.0,0.2,85,0.00,,,0.00,WUHU216HW,2013-02-03 11:03:00,
2013-02-03 06:08:00,24.3,20.4,29.88,SW,225,0.0,0.2,85,0.00,,,0.00,WUHU216HW,2013-02-03 11:08:00,
2013-02-03 06:13:00,24.3,20.4,29.88,SW,225,0.0,0.0,85,0.00,,,0.00,WUHU216HW,2013-02-03 11:13:00,
2013-02-03 06:18:00,24.3,20.4,29.88,SW,225,0.2,1.1,85,0.00,,,0.00,WUHU216HW,2013-02-03 11:18:00,
2013-02-03 06:23:00,24.1,20.5,29.89,SW,225,0.0,1.1,86,0.00,,,0.00,WUHU216HW,2013-02-03 11:23:00,
2013-02-03 06:28:00,24.1,20.5,29.89,SW,225,0.0,0.0,86,0.00,,,0.00,WUHU216HW,2013-02-03 11:28:00,
2013-02-03 06:33:00,24.1,20.3,29.89,SW,225,0.4,0.4,85,0.00,,,0.00,WUHU216HW,2013-02-03 11:33:00,
2013-02-03 06:38:00,24.1,20.5,29.88,SW,225,0.2,0.4,86,0.00,,,0.00,WUHU216HW,2013-02-03 11:38:00,
2013-02-03 06:43:00,24.1,20.5,29.89,SW,225,0.0,0.4,86,0.00,,,0.00,WUHU216HW,2013-02-03 11:43:00,
2013-02-03 06:48:00,24.1,20.3,29.89,SW,225,0.0,0.0,85,0.00,,,0.00,WUHU216HW,2013-02-03 11:48:00,
2013-02-03 06:53:00,24.1,20.3,29.88,SW,225,0.0,0.9,85,0.00,,,0.00,WUHU216HW,2013-02-03 11:53:00,
2013-02-03 06:58:00,24.1,20.5,29.88,SW,225,0.4,0.9,86,0.00,,,0.00,WUHU216HW,2013-02-03 11:58:00,
2013-02-03 07:03:00,24.1,20.5,29.88,SW,225,0.0,0.7,86,0.00,,,0.00,WUHU216HW,2013-02-03 12:03:00,
2013-02-03 07:08:00,24.1,20.5,29.88,SW,225,0.0,0.7,86,0.00,,,0.00,WUHU216HW,2013-02-03 12:08:00,
2013-02-03 07:13:00,24.1,20.5,29.88,SW,225,0.0,0.4,86,0.00,,,0.00,WUHU216HW,2013-02-03 12:13:00,
2013-02-03 07:18:00,24.1,20.5,29.89,SW,225,0.0,0.4,86,0.00,,,0.00,WUHU216HW,2013-02-03 12:18:00,
2013-02-03 07:23:00,24.1,20.5,29.88,SW,225,0.0,0.4,86,0.00,,,0.00,WUHU216HW,2013-02-03 12:23:00,
2013-02-03 07:28:00,24.1,20.5,29.88,SW,225,0.0,0.4,86,0.00,,,0.00,WUHU216HW,2013-02-03 12:28:00,
2013-02-03 07:33:00,24.1,20.5,29.89,SW,225,0.0,0.4,86,0.00,,,0.00,WUHU216HW,2013-02-03 12:33:00,
2013-02-03 07:38:00,24.1,20.5,29.89,SW,225,0.4,0.4,86,0.00,,,0.00,WUHU216HW,2013-02-03 12:38:00,
2013-02-03 07:43:00,24.1,20.5,29.89,SW,225,0.0,0.4,86,0.00,,,0.00,WUHU216HW,2013-02-03 12:43:00,
2013-02-03 07:48:00,24.1,20.5,29.89,SW,225,0.2,0.2,86,0.00,,,0.00,WUHU216HW,2013-02-03 12:48:00,
2013-02-03 07:53:00,24.1,20.5,29.89,NW,315,0.0,0.2,86,0.00,,,0.00,WUHU216HW,2013-02-03 12:53:00,
2013-02-03 07:58:00,24.1,20.3,29.89,West,270,0.2,0.4,85,0.00,,,0.00,WUHU216HW,2013-02-03 12:58:00,
2013-02-03 08:03:00,24.3,20.4,29.89,SW,225,0.0,0.7,85,0.00,,,0.00,WUHU216HW,2013-02-03 13:03:00,
2013-02-03 08:08:00,24.5,20.6,29.89,SW,225,0.0,0.7,85,0.00,,,0.00,WUHU216HW,2013-02-03 13:08:00,
2013-02-03 08:13:00,24.5,20.6,29.89,SW,225,0.2,0.2,85,0.00,,,0.00,WUHU216HW,2013-02-03 13:13:00,
2013-02-03 08:18:00,24.5,20.6,29.89,SW,225,0.0,0.2,85,0.00,,,0.00,WUHU216HW,2013-02-03 13:18:00,
2013-02-03 08:23:00,24.7,20.8,29.89,SW,225,0.0,0.2,85,0.00,,,0.00,WUHU216HW,2013-02-03 13:23:00,
2013-02-03 08:28:00,24.8,21.0,29.89,SW,225,0.0,0.2,85,0.00,,,0.00,WUHU216HW,2013-02-03 13:28:00,
2013-02-03 08:33:00,25.2,21.3,29.89,SW,225,0.0,0.2,85,0.00,,,0.00,WUHU216HW,2013-02-03 13:33:00,
2013-02-03 08:38:00,25.6,21.7,29.89,SW,225,0.4,0.7,85,0.00,,,0.00,WUHU216HW,2013-02-03 13:38:00,
2013-02-03 08:43:00,25.6,21.4,29.89,North,0,0.2,0.7,84,0.00,,,0.00,WUHU216HW,2013-02-03 13:43:00,
2013-02-03 08:48:00,25.6,21.1,29.89,NW,315,0.2,0.7,83,0.00,,,0.00,WUHU216HW,2013-02-03 13:48:00,
2013-02-03 08:53:00,25.6,21.1,29.89,West,270,0.7,0.9,83,0.00,,,0.00,WUHU216HW,2013-02-03 13:53:00,
2013-02-03 08:58:00,25.6,21.1,29.89,NNW,338,0.0,0.9,83,0.00,,,0.00,WUHU216HW,2013-02-03 13:58:00,
2013-02-03 09:03:00,25.6,21.1,29.89,NNW,338,0.0,0.4,83,0.00,,,0.00,WUHU216HW,2013-02-03 14:03:00,
2013-02-03 09:08:00,25.6,20.8,29.89,NNW,338,0.0,0.7,82,0.00,,,0.00,WUHU216HW,2013-02-03 14:08:00,
2013-02-03 09:13:00,25.6,20.8,29.89,NW,315,0.2,1.1,82,0.00,,,0.00,WUHU216HW,2013-02-03 14:13:00,
2013-02-03 09:18:00,25.6,20.8,29.89,WSW,248,0.0,1.1,82,0.00,,,0.00,WUHU216HW,2013-02-03 14:18:00,
2013-02-03 09:23:00,25.6,20.8,29.89,North,0,0.4,0.4,82,0.00,,,0.00,WUHU216HW,2013-02-03 14:23:00,
2013-02-03 09:28:00,25.7,21.0,29.89,NNW,338,0.4,1.1,82,0.00,,,0.00,WUHU216HW,2013-02-03 14:28:00,
2013-02-03 09:33:00,25.9,21.2,29.89,SW,225,0.0,1.1,82,0.00,,,0.00,WUHU216HW,2013-02-03 14:33:00,
2013-02-03 09:38:00,26.1,21.3,29.89,NNW,338,0.0,0.4,82,0.00,,,0.00,WUHU216HW,2013-02-03 14:38:00,
2013-02-03 09:43:00,26.3,21.8,29.89,WSW,248,0.0,0.7,83,0.00,,,0.00,WUHU216HW,2013-02-03 14:43:00,
2013-02-03 09:48:00,26.8,22.3,29.89,WSW,248,0.0,0.7,83,0.00,,,0.00,WUHU216HW,2013-02-03 14:48:00,
2013-02-03 09:53:00,27.4,22.9,29.89,SW,225,0.4,0.4,83,0.00,,,0.00,WUHU216HW,2013-02-03 14:53:00,
2013-02-03 09:58:00,27.2,22.3,29.88,NNW,338,0.0,0.4,82,0.00,,,0.00,WUHU216HW,2013-02-03 14:58:00,
2013-02-03 10:03:00,27.0,22.1,29.88,WSW,248,0.2,0.7,82,0.00,,,0.00,WUHU216HW,2013-02-03 15:03:00,
2013-02-03 10:08:00,27.5,22.7,29.88,WSW,248,0.0,0.9,82,0.00,,,0.00,WUHU216HW,2013-02-03 15:08:00,
2013-02-03 10:13:00,27.7,22.9,29.88,NNW,338,0.2,0.9,82,0.00,,,0.00,WUHU216HW,2013-02-03 15:13:00,
2013-02-03 10:18:00,27.9,22.5,29.88,NNW,338,0.4,0.4,80,0.00,,,0.00,WUHU216HW,2013-02-03 15:18:00,
2013-02-03 10:23:00,27.7,22.3,29.88,NNW,338,0.0,1.1,80,0.00,,,0.00,WUHU216HW,2013-02-03 15:23:00,
2013-02-03 10:28:00,27.2,21.8,29.88,NNW,338,0.0,1.1,80,0.00,,,0.00,WUHU216HW,2013-02-03 15:28:00,
2013-02-03 10:33:00,27.0,21.6,29.88,NNW,338,0.2,0.9,80,0.00,,,0.00,WUHU216HW,2013-02-03 15:33:00,
2013-02-03 10:38:00,27.0,21.9,29.87,NNW,338,0.0,0.9,81,0.00,,,0.00,WUHU216HW,2013-02-03 15:38:00,
2013-02-03 10:43:00,27.2,21.8,29.87,NNW,338,0.7,0.9,80,0.00,,,0.00,WUHU216HW,2013-02-03 15:43:00,
2013-02-03 10:48:00,27.0,21.6,29.87,NW,315,0.9,1.3,80,0.00,,,0.00,WUHU216HW,2013-02-03 15:48:00,
2013-02-03 10:53:00,27.2,21.8,29.87,NW,315,0.2,1.3,80,0.00,,,0.00,WUHU216HW,2013-02-03 15:53:00,
2013-02-03 10:58:00,27.4,22.0,29.87,NNW,338,0.0,1.1,80,0.00,,,0.00,WUHU216HW,2013-02-03 15:58:00,
2013-02-03 11:03:00,27.5,21.9,29.87,SSE,158,1.1,1.1,79,0.00,,,0.00,WUHU216HW,2013-02-03 16:03:00,
2013-02-03 11:08:00,27.4,21.7,29.87,WNW,293,0.9,1.1,79,0.00,,,0.00,WUHU216HW,2013-02-03 16:08:00,
2013-02-03 11:13:00,27.5,21.9,29.87,North,0,0.0,1.3,79,0.00,,,0.00,WUHU216HW,2013-02-03 16:13:00,
2013-02-03 11:18:00,27.5,21.5,29.87,North,0,0.7,1.3,78,0.00,,,0.00,WUHU216HW,2013-02-03 16:18:00,
2013-02-03 11:23:00,27.7,22.1,29.87,NNW,338,0.9,0.9,79,0.00,,,0.00,WUHU216HW,2013-02-03 16:23:00,
2013-02-03 11:28:00,27.7,21.1,29.86,NNW,338,1.1,2.2,76,0.00,,,0.00,WUHU216HW,2013-02-03 16:28:00,
2013-02-03 11:33:00,27.7,21.1,29.87,NW,315,0.4,2.2,76,0.00,,,0.00,WUHU216HW,2013-02-03 16:33:00,
2013-02-03 11:38:00,27.7,21.1,29.87,NNW,338,0.0,2.0,76,0.00,,,0.00,WUHU216HW,2013-02-03 16:38:00,
2013-02-03 11:43:00,27.9,21.6,29.86,NNW,338,0.4,2.0,77,0.00,,,0.00,WUHU216HW,2013-02-03 16:43:00,
2013-02-03 11:48:00,28.4,21.8,29.86,WNW,293,0.0,0.7,76,0.00,,,0.00,WUHU216HW,2013-02-03 16:48:00,
2013-02-03 11:53:00,28.4,21.8,29.86,NNW,338,0.0,1.8,76,0.00,,,0.00,WUHU216HW,2013-02-03 16:53:00,
2013-02-03 11:58:00,29.2,22.5,29.86,SW,225,0.4,1.8,76,0.00,,,0.00,WUHU216HW,2013-02-03 16:58:00,
2013-02-03 12:03:00,29.9,23.5,29.86,West,270,1.1,2.5,77,0.00,,,0.00,WUHU216HW,2013-02-03 17:03:00,
2013-02-03 12:08:00,29.9,23.2,29.86,NW,315,0.4,2.5,76,0.00,,,0.00,WUHU216HW,2013-02-03 17:08:00,
2013-02-03 12:13:00,29.5,22.5,29.85,WSW,248,0.4,3.6,75,0.00,,,0.00,WUHU216HW,2013-02-03 17:13:00,
2013-02-03 12:18:00,29.2,22.2,29.85,NW,315,0.7,3.6,75,0.00,,,0.00,WUHU216HW,2013-02-03 17:18:00,
2013-02-03 12:23:00,29.0,22.3,29.85,NNW,338,0.0,2.0,76,0.00,,,0.00,WUHU216HW,2013-02-03 17:23:00,
2013-02-03 12:28:00,28.6,22.0,29.85,NNW,338,0.2,1.3,76,0.00,,,0.00,WUHU216HW,2013-02-03 17:28:00,
2013-02-03 12:33:00,28.6,22.3,29.85,NNW,338,0.2,0.9,77,0.00,,,0.00,WUHU216HW,2013-02-03 17:33:00,
2013-02-03 12:38:00,28.1,21.8,29.85,NW,315,1.1,1.6,77,0.00,,,0.00,WUHU216HW,2013-02-03 17:38:00,
2013-02-03 12:43:00,27.2,21.2,29.85,NW,315,1.3,2.5,78,0.00,,,0.00,WUHU216HW,2013-02-03 17:43:00,
2013-02-03 12:48:00,26.8,20.5,29.85,NW,315,3.1,3.1,77,0.00,,,0.00,WUHU216HW,2013-02-03 17:48:00,
2013-02-03 12:53:00,26.6,20.4,29.84,NW,315,1.1,3.8,77,0.00,,,0.00,WUHU216HW,2013-02-03 17:53:00,
2013-02-03 12:58:00,26.6,21.0,29.84,West,270,2.0,3.8,79,0.00,,,0.00,WUHU216HW,2013-02-03 17:58:00,
2013-02-03 13:03:00,26.6,21.0,29.84,North,0,0.4,2.0,79,0.00,,,0.00,WUHU216HW,2013-02-03 18:03:00,
2013-02-03 13:08:00,26.3,20.9,29.84,NNW,338,1.1,2.7,80,0.00,,,0.00,WUHU216HW,2013-02-03 18:08:00,
2013-02-03 13:13:00,26.3,20.9,29.84,NW,315,0.7,4.0,80,0.00,,,0.00,WUHU216HW,2013-02-03 18:13:00,
2013-02-03 13:18:00,26.3,20.9,29.84,ENE,68,0.0,4.0,80,0.00,,,0.00,WUHU216HW,2013-02-03 18:18:00,
2013-02-03 13:23:00,26.3,20.9,29.84,North,0,1.1,2.2,80,0.00,,,0.00,WUHU216HW,2013-02-03 18:23:00,
2013-02-03 13:28:00,26.3,20.9,29.84,NNW,338,0.7,2.2,80,0.00,,,0.00,WUHU216HW,2013-02-03 18:28:00,
2013-02-03 13:33:00,26.1,20.8,29.84,NW,315,1.6,2.2,80,0.00,,,0.00,WUHU216HW,2013-02-03 18:33:00,
2013-02-03 13:38:00,25.9,20.6,29.84,NW,315,1.3,2.2,80,0.00,,,0.00,WUHU216HW,2013-02-03 18:38:00,
2013-02-03 13:43:00,26.3,20.6,29.84,NW,315,2.9,2.9,79,0.01,,,0.01,WUHU216HW,2013-02-03 18:43:00,
2013-02-03 13:48:00,25.7,19.5,29.84,North,0,1.3,5.1,77,0.01,,,0.01,WUHU216HW,2013-02-03 18:48:00,
2013-02-03 13:53:00,25.6,19.0,29.84,NNW,338,0.4,5.1,76,0.01,,,0.01,WUHU216HW,2013-02-03 18:53:00,
2013-02-03 13:58:00,25.4,19.2,29.84,WNW,293,0.7,2.0,77,0.01,,,0.01,WUHU216HW,2013-02-03 18:58:00,
2013-02-03 14:03:00,25.6,19.4,29.84,NNW,338,2.7,2.7,77,0.01,,,0.01,WUHU216HW,2013-02-03 19:03:00,
2013-02-03 14:08:00,25.6,19.4,29.84,NW,315,0.4,2.7,77,0.01,,,0.01,WUHU216HW,2013-02-03 19:08:00,
2013-02-03 14:13:00,25.4,19.2,29.84,NNW,338,0.4,2.5,77,0.01,,,0.01,WUHU216HW,2013-02-03 19:13:00,
2013-02-03 14:18:00,25.7,19.8,29.84,NNW,338,1.3,2.0,78,0.01,,,0.01,WUHU216HW,2013-02-03 19:18:00,
2013-02-03 14:23:00,25.6,19.4,29.84,NNW,338,3.1,3.1,77,0.01,,,0.01,WUHU216HW,2013-02-03 19:23:00,
2013-02-03 14:28:00,25.4,19.4,29.84,NNW,338,1.1,3.1,78,0.01,,,0.01,WUHU216HW,2013-02-03 19:28:00,
2013-02-03 14:33:00,25.0,18.5,29.84,NNW,338,0.9,6.3,76,0.01,,,0.01,WUHU216HW,2013-02-03 19:33:00,
2013-02-03 14:38:00,25.2,18.4,29.85,WNW,293,1.1,6.3,75,0.00,,,0.01,WUHU216HW,2013-02-03 19:38:00,
2013-02-03 14:43:00,25.4,18.6,29.85,NW,315,4.9,4.9,75,0.00,,,0.01,WUHU216HW,2013-02-03 19:43:00,
2013-02-03 14:48:00,25.2,18.4,29.85,WNW,293,1.8,5.1,75,0.00,,,0.01,WUHU216HW,2013-02-03 19:48:00,
2013-02-03 14:53:00,25.6,18.7,29.85,NW,315,0.2,5.1,75,0.00,,,0.01,WUHU216HW,2013-02-03 19:53:00,
2013-02-03 14:58:00,25.6,18.7,29.85,NW,315,3.1,3.1,75,0.00,,,0.01,WUHU216HW,2013-02-03 19:58:00,
2013-02-03 15:03:00,25.6,18.7,29.85,WNW,293,1.6,3.1,75,0.00,,,0.01,WUHU216HW,2013-02-03 20:03:00,
2013-02-03 15:08:00,25.7,18.8,29.85,NW,315,1.1,2.2,75,0.00,,,0.01,WUHU216HW,2013-02-03 20:08:00,
2013-02-03 15:13:00,25.7,19.2,29.86,North,0,1.3,2.5,76,0.00,,,0.01,WUHU216HW,2013-02-03 20:13:00,
2013-02-03 15:18:00,25.6,19.0,29.86,NW,315,1.3,2.5,76,0.00,,,0.01,WUHU216HW,2013-02-03 20:18:00,
2013-02-03 15:23:00,25.2,18.6,29.86,NW,315,0.0,2.7,76,0.00,,,0.01,WUHU216HW,2013-02-03 20:23:00,
2013-02-03 15:28:00,25.2,19.0,29.86,NNW,338,0.4,2.7,77,0.00,,,0.01,WUHU216HW,2013-02-03 20:28:00,
2013-02-03 15:33:00,25.0,18.2,29.86,NW,315,3.4,3.4,75,0.00,,,0.01,WUHU216HW,2013-02-03 20:33:00,
2013-02-03 15:38:00,24.1,17.3,29.86,WSW,248,1.8,5.6,75,0.00,,,0.01,WUHU216HW,2013-02-03 20:38:00,
2013-02-03 15:43:00,23.9,17.5,29.86,West,270,1.8,5.6,76,0.00,,,0.01,WUHU216HW,2013-02-03 20:43:00,
2013-02-03 15:48:00,24.1,17.7,29.86,NW,315,1.1,3.1,76,0.01,,,0.02,WUHU216HW,2013-02-03 20:48:00,
2013-02-03 15:53:00,24.1,17.3,29.87,NW,315,1.1,2.9,75,0.01,,,0.02,WUHU216HW,2013-02-03 20:53:00,
2013-02-03 15:58:00,24.5,17.6,29.86,WNW,293,2.5,2.5,75,0.01,,,0.02,WUHU216HW,2013-02-03 20:58:00,
2013-02-03 16:03:00,24.7,17.8,29.87,NW,315,0.2,2.5,75,0.01,,,0.02,WUHU216HW,2013-02-03 21:03:00,
2013-02-03 16:08:00,24.3,17.5,29.87,WNW,293,0.0,2.5,75,0.01,,,0.02,WUHU216HW,2013-02-03 21:08:00,
2013-02-03 16:13:00,24.1,17.7,29.88,NW,315,2.5,2.5,76,0.01,,,0.02,WUHU216HW,2013-02-03 21:13:00,
2013-02-03 16:18:00,23.9,17.8,29.88,NNW,338,0.4,2.5,77,0.01,,,0.02,WUHU216HW,2013-02-03 21:18:00,
2013-02-03 16:23:00,23.6,17.5,29.88,NE,45,1.1,2.5,77,0.01,,,0.02,WUHU216HW,2013-02-03 21:23:00,
2013-02-03 16:28:00,23.4,17.6,29.88,NW,315,1.1,3.6,78,0.01,,,0.02,WUHU216HW,2013-02-03 21:28:00,
2013-02-03 16:33:00,23.4,17.6,29.88,WNW,293,1.8,3.6,78,0.01,,,0.02,WUHU216HW,2013-02-03 21:33:00,
2013-02-03 16:38:00,23.2,17.1,29.88,NW,315,3.4,3.4,77,0.01,,,0.02,WUHU216HW,2013-02-03 21:38:00,
2013-02-03 16:43:00,23.0,16.9,29.88,NW,315,0.7,4.0,77,0.01,,,0.02,WUHU216HW,2013-02-03 21:43:00,
2013-02-03 16:48:00,23.2,17.1,29.89,NW,315,0.2,4.0,77,0.00,,,0.02,WUHU216HW,2013-02-03 21:48:00,
2013-02-03 16:53:00,23.2,16.1,29.88,West,270,0.7,3.6,74,0.00,,,0.02,WUHU216HW,2013-02-03 21:53:00,
2013-02-03 16:58:00,23.2,15.6,29.89,NNW,338,2.5,3.6,72,0.00,,,0.02,WUHU216HW,2013-02-03 21:58:00,
2013-02-03 17:03:00,23.2,15.6,29.89,West,270,1.1,3.8,72,0.00,,,0.02,WUHU216HW,2013-02-03 22:03:00,
2013-02-03 17:08:00,23.0,15.4,29.89,NNW,338,0.2,3.8,72,0.00,,,0.02,WUHU216HW,2013-02-03 22:08:00,
2013-02-03 17:13:00,23.0,15.0,29.89,NW,315,0.2,4.0,71,0.00,,,0.02,WUHU216HW,2013-02-03 22:13:00,
2013-02-03 17:18:00,22.9,15.2,29.90,NW,315,1.1,4.0,72,0.00,,,0.02,WUHU216HW,2013-02-03 22:18:00,
2013-02-03 17:23:00,22.9,15.2,29.90,WNW,293,0.4,2.0,72,0.00,,,0.02,WUHU216HW,2013-02-03 22:23:00,
2013-02-03 17:28:00,22.7,15.0,29.90,NW,315,0.4,3.1,72,0.00,,,0.02,WUHU216HW,2013-02-03 22:28:00,
2013-02-03 17:33:00,22.5,15.1,29.90,NNW,338,0.9,3.1,73,0.00,,,0.02,WUHU216HW,2013-02-03 22:33:00,
2013-02-03 17:38:00,22.5,15.1,29.90,NW,315,1.1,2.5,73,0.00,,,0.02,WUHU216HW,2013-02-03 22:38:00,
2013-02-03 17:43:00,22.3,14.9,29.90,NNW,338,0.4,2.9,73,0.00,,,0.02,WUHU216HW,2013-02-03 22:43:00,
2013-02-03 17:48:00,22.3,14.9,29.90,NNW,338,0.4,2.9,73,0.00,,,0.02,WUHU216HW,2013-02-03 22:48:00,
2013-02-03 17:53:00,22.1,14.8,29.91,NW,315,2.0,2.0,73,0.00,,,0.02,WUHU216HW,2013-02-03 22:53:00,
2013-02-03 17:58:00,22.0,14.6,29.91,SE,135,1.1,2.0,73,0.00,,,0.02,WUHU216HW,2013-02-03 22:58:00,
2013-02-03 18:03:00,21.8,14.8,29.91,NW,315,1.1,4.0,74,0.00,,,0.02,WUHU216HW,2013-02-03 23:03:00,
2013-02-03 18:08:00,21.6,14.9,29.91,WNW,293,1.3,4.0,75,0.00,,,0.02,WUHU216HW,2013-02-03 23:08:00,
2013-02-03 18:13:00,21.6,14.9,29.91,WNW,293,0.4,3.1,75,0.00,,,0.02,WUHU216HW,2013-02-03 23:13:00,
2013-02-03 18:18:00,21.4,14.9,29.91,NW,315,2.0,4.3,76,0.00,,,0.02,WUHU216HW,2013-02-03 23:18:00,
2013-02-03 18:23:00,21.4,15.3,29.92,NW,315,3.4,4.3,77,0.00,,,0.02,WUHU216HW,2013-02-03 23:23:00,
2013-02-03 18:28:00,21.2,15.1,29.92,NNW,338,0.2,3.4,77,0.00,,,0.02,WUHU216HW,2013-02-03 23:28:00,
2013-02-03 18:33:00,21.2,15.1,29.92,WNW,293,0.9,2.7,77,0.00,,,0.02,WUHU216HW,2013-02-03 23:33:00,
2013-02-03 18:38:00,21.2,15.1,29.93,NW,315,0.0,2.7,77,0.00,,,0.02,WUHU216HW,2013-02-03 23:38:00,
2013-02-03 18:43:00,21.4,15.3,29.93,NNW,338,1.6,1.6,77,0.00,,,0.02,WUHU216HW,2013-02-03 23:43:00,
2013-02-03 18:48:00,21.2,15.1,29.93,NW,315,2.5,2.5,77,0.00,,,0.02,WUHU216HW,2013-02-03 23:48:00,
2013-02-03 18:53:00,21.2,15.1,29.93,NW,315,0.0,3.4,77,0.00,,,0.02,WUHU216HW,2013-02-03 23:53:00,
2013-02-03 18:58:00,21.1,15.0,29.94,WNW,293,1.6,3.4,77,0.00,,,0.02,WUHU216HW,2013-02-03 23:58:00,
2013-02-03 19:03:00,21.1,15.2,29.94,NNW,338,0.0,3.1,78,0.00,,,0.02,WUHU216HW,2013-02-04 00:03:00,
2013-02-03 19:08:00,21.1,15.2,29.95,NNW,338,0.4,3.1,78,0.00,,,0.02,WUHU216HW,2013-02-04 00:08:00,
2013-02-03 19:13:00,20.9,15.0,29.95,NW,315,0.0,1.8,78,0.00,,,0.02,WUHU216HW,2013-02-04 00:13:00,
2013-02-03 19:18:00,20.9,15.4,29.95,NW,315,0.0,1.8,79,0.00,,,0.02,WUHU216HW,2013-02-04 00:18:00,
2013-02-03 19:23:00,20.9,15.4,29.96,NW,315,0.4,1.1,79,0.00,,,0.02,WUHU216HW,2013-02-04 00:23:00,
2013-02-03 19:28:00,20.9,15.4,29.96,WNW,293,0.0,1.8,79,0.00,,,0.02,WUHU216HW,2013-02-04 00:28:00,
2013-02-03 19:33:00,20.9,15.4,29.96,West,270,0.2,1.8,79,0.00,,,0.02,WUHU216HW,2013-02-04 00:33:00,
2013-02-03 19:38:00,21.1,15.8,29.96,WSW,248,0.4,0.7,80,0.00,,,0.02,WUHU216HW,2013-02-04 00:38:00,
2013-02-03 19:43:00,20.9,15.9,29.96,WNW,293,0.0,0.7,81,0.00,,,0.02,WUHU216HW,2013-02-04 00:43:00,
2013-02-03 19:48:00,20.9,15.9,29.96,NNW,338,0.7,0.9,81,0.00,,,0.02,WUHU216HW,2013-02-04 00:48:00,
2013-02-03 19:53:00,20.7,15.8,29.96,NW,315,0.0,0.9,81,0.00,,,0.02,WUHU216HW,2013-02-04 00:53:00,
2013-02-03 19:58:00,20.9,16.2,29.97,NW,315,0.0,1.1,82,0.00,,,0.02,WUHU216HW,2013-02-04 00:58:00,
2013-02-03 20:03:00,20.9,16.2,29.97,NW,315,0.4,1.1,82,0.00,,,0.02,WUHU216HW,2013-02-04 01:03:00,
2013-02-03 20:08:00,20.7,16.3,29.97,NW,315,0.9,1.1,83,0.00,,,0.02,WUHU216HW,2013-02-04 01:08:00,
2013-02-03 20:13:00,20.5,16.1,29.97,NW,315,0.2,1.1,83,0.00,,,0.02,WUHU216HW,2013-02-04 01:13:00,
2013-02-03 20:18:00,20.5,16.1,29.97,NW,315,0.2,1.1,83,0.00,,,0.02,WUHU216HW,2013-02-04 01:18:00,
2013-02-03 20:23:00,20.5,16.1,29.97,SW,225,0.4,0.4,83,0.00,,,0.02,WUHU216HW,2013-02-04 01:23:00,
2013-02-03 20:28:00,20.5,15.8,29.97,WNW,293,1.1,1.1,82,0.00,,,0.02,WUHU216HW,2013-02-04 01:28:00,
2013-02-03 20:33:00,20.5,15.8,29.97,WNW,293,1.1,1.1,82,0.00,,,0.02,WUHU216HW,2013-02-04 01:33:00,
2013-02-03 20:38:00,20.3,15.1,29.98,NNW,338,1.8,1.8,80,0.00,,,0.02,WUHU216HW,2013-02-04 01:38:00,
2013-02-03 20:43:00,20.2,14.9,29.98,WSW,248,1.1,3.4,80,0.00,,,0.02,WUHU216HW,2013-02-04 01:43:00,
2013-02-03 20:48:00,20.2,14.7,29.98,WNW,293,3.4,3.4,79,0.00,,,0.02,WUHU216HW,2013-02-04 01:48:00,
2013-02-03 20:53:00,20.2,14.7,29.98,NNW,338,1.8,3.4,79,0.00,,,0.02,WUHU216HW,2013-02-04 01:53:00,
2013-02-03 20:58:00,20.2,14.7,29.99,North,0,3.1,3.4,79,0.00,,,0.02,WUHU216HW,2013-02-04 01:58:00,
2013-02-03 21:03:00,20.0,14.5,29.99,West,270,0.9,5.1,79,0.00,,,0.02,WUHU216HW,2013-02-04 02:03:00,
2013-02-03 21:08:00,19.8,14.3,29.99,WNW,293,3.6,5.1,79,0.00,,,0.02,WUHU216HW,2013-02-04 02:08:00,
2013-02-03 21:13:00,19.8,14.3,29.99,WSW,248,0.0,3.6,79,0.00,,,0.02,WUHU216HW,2013-02-04 02:13:00,
2013-02-03 21:18:00,19.8,14.3,29.99,WNW,293,0.4,2.2,79,0.00,,,0.02,WUHU216HW,2013-02-04 02:18:00,
2013-02-03 21:23:00,19.8,14.0,30.00,WNW,293,1.1,4.5,78,0.00,,,0.02,WUHU216HW,2013-02-04 02:23:00,
2013-02-03 21:28:00,19.8,14.0,30.00,WNW,293,0.7,4.5,78,0.00,,,0.02,WUHU216HW,2013-02-04 02:28:00,
2013-02-03 21:33:00,19.8,14.3,30.00,WNW,293,3.4,4.5,79,0.00,,,0.02,WUHU216HW,2013-02-04 02:33:00,
2013-02-03 21:38:00,19.8,14.0,30.00,NW,315,3.6,6.3,78,0.00,,,0.02,WUHU216HW,2013-02-04 02:38:00,
2013-02-03 21:43:00,19.8,14.3,30.00,NW,315,2.0,6.3,79,0.00,,,0.02,WUHU216HW,2013-02-04 02:43:00,
2013-02-03 21:48:00,19.8,14.3,30.00,WNW,293,1.1,2.7,79,0.00,,,0.02,WUHU216HW,2013-02-04 02:48:00,
2013-02-03 21:53:00,19.8,14.0,30.01,West,270,3.1,3.1,78,0.00,,,0.02,WUHU216HW,2013-02-04 02:53:00,
2013-02-03 21:58:00,19.6,13.8,30.00,WSW,248,0.4,4.7,78,0.00,,,0.02,WUHU216HW,2013-02-04 02:58:00,
2013-02-03 22:03:00,19.6,13.8,30.01,WNW,293,1.3,4.7,78,0.00,,,0.02,WUHU216HW,2013-02-04 03:03:00,
2013-02-03 22:08:00,19.6,13.8,30.01,NNW,338,0.4,4.0,78,0.00,,,0.02,WUHU216HW,2013-02-04 03:08:00,
2013-02-03 22:13:00,19.6,13.8,30.01,WNW,293,1.1,4.0,78,0.00,,,0.02,WUHU216HW,2013-02-04 03:13:00,
2013-02-03 22:18:00,19.6,14.1,30.01,NW,315,2.9,2.9,79,0.00,,,0.02,WUHU216HW,2013-02-04 03:18:00,
2013-02-03 22:23:00,19.4,14.0,30.01,West,270,1.8,2.9,79,0.00,,,0.02,WUHU216HW,2013-02-04 03:23:00,
2013-02-03 22:28:00,19.4,14.0,30.02,West,270,1.8,2.0,79,0.00,,,0.02,WUHU216HW,2013-02-04 03:28:00,
2013-02-03 22:33:00,19.1,13.9,30.02,WSW,248,2.5,2.7,80,0.00,,,0.02,WUHU216HW,2013-02-04 03:33:00,
2013-02-03 22:38:00,19.1,13.6,30.02,West,270,0.9,7.8,79,0.00,,,0.02,WUHU216HW,2013-02-04 03:38:00,
2013-02-03 22:43:00,18.9,13.1,30.02,West,270,2.2,7.8,78,0.00,,,0.02,WUHU216HW,2013-02-04 03:43:00,
2013-02-03 22:48:00,18.9,13.1,30.02,WNW,293,1.3,3.4,78,0.00,,,0.02,WUHU216HW,2013-02-04 03:48:00,
2013-02-03 22:53:00,18.9,12.8,30.02,West,270,0.4,2.0,77,0.00,,,0.02,WUHU216HW,2013-02-04 03:53:00,
2013-02-03 22:58:00,18.9,12.8,30.03,NW,315,0.7,2.0,77,0.00,,,0.02,WUHU216HW,2013-02-04 03:58:00,
2013-02-03 23:03:00,18.9,12.8,30.03,West,270,0.7,2.0,77,0.00,,,0.02,WUHU216HW,2013-02-04 04:03:00,
2013-02-03 23:08:00,18.7,12.6,30.03,West,270,0.4,2.5,77,0.00,,,0.02,WUHU216HW,2013-02-04 04:08:00,
2013-02-03 23:13:00,18.7,12.9,30.03,WSW,248,0.2,2.5,78,0.00,,,0.02,WUHU216HW,2013-02-04 04:13:00,
2013-02-03 23:18:00,18.7,12.9,30.03,West,270,0.2,1.3,78,0.00,,,0.02,WUHU216HW,2013-02-04 04:18:00,
2013-02-03 23:23:00,18.7,12.9,30.03,WNW,293,0.4,1.3,78,0.00,,,0.02,WUHU216HW,2013-02-04 04:23:00,
2013-02-03 23:28:00,18.5,12.7,30.03,West,270,0.4,1.3,78,0.00,,,0.02,WUHU216HW,2013-02-04 04:28:00,
2013-02-03 23:33:00,18.5,12.7,30.04,West,270,0.4,1.3,78,0.00,,,0.02,WUHU216HW,2013-02-04 04:33:00,
2013-02-03 23:38:00,18.5,12.7,30.04,West,270,1.1,1.6,78,0.00,,,0.02,WUHU216HW,2013-02-04 04:38:00,
2013-02-03 23:43:00,18.4,12.5,30.04,West,270,1.6,2.9,78,0.00,,,0.02,WUHU216HW,2013-02-04 04:43:00,
2013-02-03 23:48:00,18.4,12.9,30.04,WNW,293,0.4,2.9,79,0.00,,,0.02,WUHU216HW,2013-02-04 04:48:00,
2013-02-03 23:53:00,18.4,12.5,30.04,SW,225,0.2,2.2,78,0.00,,,0.02,WUHU216HW,2013-02-04 04:53:00,
2013-02-03 23:58:00,18.4,12.5,30.04,WSW,248,0.4,2.0,78,0.00,,,0.02,WUHU216HW,2013-02-04 04:58:00,